Overview Statistics Trail Chart Weather Telemetry Raw packets
 

This is the latest recevied weather packets stored in our database for station/object N9BLE. If no packets are shown the sender has not sent any weather packets the latest 10 day(s).

<< 6 7 8 9 10 11 12 >>
Time Temp. Humidity Pressure Rain* Wind** Luminosity Snow
1777991777 10.56° C 50% 1012.6 hPa 0 mm - 179 W/m² -
1777991474 10.56° C 51% 1012.7 hPa 0 mm - 150 W/m² -
1777991171 10.56° C 53% 1012.6 hPa 0 mm - 177 W/m² -
1777990869 10.56° C 49% 1012.8 hPa 0 mm - 175 W/m² -
1777990566 10° C 50% 1012.9 hPa 0 mm - 193 W/m² -
1777990262 10° C 55% 1012.7 hPa 0 mm - 179 W/m² -
1777989959 10° C 52% 1012.8 hPa 0 mm - 152 W/m² -
1777989656 10° C 53% 1012.9 hPa 0 mm - 140 W/m² -
1777989352 10° C 54% 1012.9 hPa 0 mm - 139 W/m² -
1777989049 10° C 55% 1013 hPa 0 mm - 119 W/m² -
1777988744 10° C 62% 1013.3 hPa 0 mm - 119 W/m² -
1777988442 9.44° C 65% 1013.4 hPa 0 mm - 111 W/m² -
1777988139 9.44° C 65% 1013.4 hPa 0 mm - 83 W/m² -
1777987835 9.44° C 61% 1013.4 hPa 0 mm - 92 W/m² -
1777987532 9.44° C 62% 1013.5 hPa 0 mm - 97 W/m² -
1777987230 9.44° C 63% 1013.5 hPa 0 mm - 93 W/m² -
1777986925 9.44° C 65% 1013.4 hPa 0 mm - 96 W/m² -
1777986624 8.89° C 64% 1013.5 hPa 0 mm - 104 W/m² -
1777986321 8.89° C 69% 1013.5 hPa 0 mm - 99 W/m² -
1777986020 8.89° C 70% 1013.4 hPa 0 mm - 99 W/m² -
1777985716 8.89° C 72% 1013.2 hPa 0 mm - 88 W/m² -
1777985413 8.89° C 72% 1013 hPa 0 mm - 74 W/m² -
1777985109 8.33° C 72% 1012.7 hPa 0 mm - 67 W/m² -
1777984806 8.33° C 70% 1012.4 hPa 0 mm - 60 W/m² -
1777984503 8.33° C 71% 1012.8 hPa 0 mm - 39 W/m² -

* Rain latest hour (hover to see other rain measurements)
** Current wind speed in m/s (hover to see current wind gust speed)